Year,Month,Day,Hour,Minute,Value (Times are PST for temperature in C)
2020,05,27,00,00,11.80
2020,05,27,00,01,11.80
2020,05,27,00,02,11.70
2020,05,27,00,03,11.70
2020,05,27,00,04,11.70
2020,05,27,00,05,11.70
2020,05,27,00,06,11.70
2020,05,27,00,07,11.70
2020,05,27,00,08,11.60
2020,05,27,00,09,11.60
2020,05,27,00,10,11.60
2020,05,27,00,11,11.60
2020,05,27,00,12,11.60
2020,05,27,00,13,11.50
2020,05,27,00,14,11.50
2020,05,27,00,15,11.50
2020,05,27,00,16,11.40
2020,05,27,00,17,11.40
2020,05,27,00,18,11.40
2020,05,27,00,19,11.40
2020,05,27,00,20,11.30
2020,05,27,00,21,11.30
2020,05,27,00,22,11.30
2020,05,27,00,23,11.30
2020,05,27,00,24,11.30
2020,05,27,00,25,11.30
2020,05,27,00,26,11.30
2020,05,27,00,27,11.20
2020,05,27,00,28,11.20
2020,05,27,00,29,11.20
2020,05,27,00,30,11.20
2020,05,27,00,31,11.20
2020,05,27,00,32,11.20
2020,05,27,00,33,11.20
2020,05,27,00,34,11.20
2020,05,27,00,35,11.10
2020,05,27,00,36,11.10
2020,05,27,00,37,11.10
2020,05,27,00,38,11.10
2020,05,27,00,39,11.10
2020,05,27,00,40,11.10
2020,05,27,00,41,11.10
2020,05,27,00,42,11.10
2020,05,27,00,43,11.10
2020,05,27,00,44,11.10
2020,05,27,00,45,11.00
2020,05,27,00,46,11.00
2020,05,27,00,47,11.00
2020,05,27,00,48,11.00
2020,05,27,00,49,11.00
2020,05,27,00,50,11.00
2020,05,27,00,51,10.90
2020,05,27,00,52,10.90
2020,05,27,00,53,10.90
2020,05,27,00,54,10.90
2020,05,27,00,55,10.90
2020,05,27,00,56,10.80
2020,05,27,00,57,10.80
2020,05,27,00,58,10.80
2020,05,27,00,59,10.80
2020,05,27,01,00,10.80
2020,05,27,01,01,10.80
2020,05,27,01,02,10.80
2020,05,27,01,03,10.80
2020,05,27,01,04,10.80
2020,05,27,01,05,10.80
2020,05,27,01,06,10.70
2020,05,27,01,07,10.70
2020,05,27,01,08,10.70
2020,05,27,01,09,10.70
2020,05,27,01,10,10.70
2020,05,27,01,11,10.70
2020,05,27,01,12,10.70
2020,05,27,01,13,10.60
2020,05,27,01,14,10.60
2020,05,27,01,15,10.60
2020,05,27,01,16,10.60
2020,05,27,01,17,10.60
2020,05,27,01,18,10.60
2020,05,27,01,19,10.60
2020,05,27,01,20,10.60
2020,05,27,01,21,10.60
2020,05,27,01,22,10.60
2020,05,27,01,23,10.60
2020,05,27,01,24,10.60
2020,05,27,01,25,10.60
2020,05,27,01,26,10.60
2020,05,27,01,27,10.60
2020,05,27,01,28,10.60
2020,05,27,01,29,10.50
2020,05,27,01,30,10.50
2020,05,27,01,31,10.50
2020,05,27,01,32,10.50
2020,05,27,01,33,10.50
2020,05,27,01,34,10.50
2020,05,27,01,35,10.50
2020,05,27,01,36,10.50
2020,05,27,01,37,10.50
2020,05,27,01,38,10.50
2020,05,27,01,39,10.50
2020,05,27,01,40,10.50
2020,05,27,01,41,10.50
2020,05,27,01,42,10.40
2020,05,27,01,43,10.40
2020,05,27,01,44,10.40
2020,05,27,01,45,10.40
2020,05,27,01,46,10.40
2020,05,27,01,47,10.40
2020,05,27,01,48,10.40
2020,05,27,01,49,10.40
2020,05,27,01,50,10.30
2020,05,27,01,51,10.30
2020,05,27,01,52,10.30
2020,05,27,01,53,10.30
2020,05,27,01,54,10.30
2020,05,27,01,55,10.30
2020,05,27,01,56,10.30
2020,05,27,01,57,10.30
2020,05,27,01,58,10.30
2020,05,27,01,59,10.30
2020,05,27,02,00,10.30
2020,05,27,02,01,10.30
2020,05,27,02,02,10.30
2020,05,27,02,03,10.30
2020,05,27,02,04,10.30
2020,05,27,02,05,10.20
2020,05,27,02,06,10.20
2020,05,27,02,07,10.20
2020,05,27,02,08,10.20
2020,05,27,02,09,10.20
2020,05,27,02,10,10.20
2020,05,27,02,11,10.20
2020,05,27,02,12,10.30
2020,05,27,02,13,10.30
2020,05,27,02,14,10.30
2020,05,27,02,15,10.30
2020,05,27,02,16,10.30
2020,05,27,02,17,10.30
2020,05,27,02,18,10.30
2020,05,27,02,19,10.30
2020,05,27,02,20,10.30
2020,05,27,02,21,10.20
2020,05,27,02,22,10.20
2020,05,27,02,23,10.20
2020,05,27,02,24,10.20
2020,05,27,02,25,10.20
2020,05,27,02,26,10.20
2020,05,27,02,27,10.20
2020,05,27,02,28,10.10
2020,05,27,02,29,10.10
2020,05,27,02,30,10.10
2020,05,27,02,31,10.00
2020,05,27,02,32,10.00
2020,05,27,02,33,9.90
2020,05,27,02,34,9.90
2020,05,27,02,35,9.90
2020,05,27,02,36,9.80
2020,05,27,02,37,9.80
2020,05,27,02,38,9.80
2020,05,27,02,39,9.70
2020,05,27,02,40,9.70
2020,05,27,02,41,9.70
2020,05,27,02,42,9.70
2020,05,27,02,43,9.60
2020,05,27,02,44,9.60
2020,05,27,02,45,9.60
2020,05,27,02,46,9.60
2020,05,27,02,47,9.60
2020,05,27,02,48,9.50
2020,05,27,02,49,9.50
2020,05,27,02,50,9.50
2020,05,27,02,51,9.40
2020,05,27,02,52,9.40
2020,05,27,02,53,9.40
2020,05,27,02,54,9.40
2020,05,27,02,55,9.40
2020,05,27,02,56,9.30
2020,05,27,02,57,9.30
2020,05,27,02,58,9.30
2020,05,27,02,59,9.30
2020,05,27,03,00,9.30
2020,05,27,03,01,9.30
2020,05,27,03,02,9.20
2020,05,27,03,03,9.20
2020,05,27,03,04,9.20
2020,05,27,03,05,9.20
2020,05,27,03,06,9.20
2020,05,27,03,07,9.20
2020,05,27,03,08,9.20
2020,05,27,03,09,9.20
2020,05,27,03,10,9.20
2020,05,27,03,11,9.20
2020,05,27,03,12,9.20
2020,05,27,03,13,9.10
2020,05,27,03,14,9.10
2020,05,27,03,15,9.10
2020,05,27,03,16,9.10
2020,05,27,03,17,9.10
2020,05,27,03,18,9.10
2020,05,27,03,19,9.10
2020,05,27,03,20,9.10
2020,05,27,03,21,9.10
2020,05,27,03,22,9.10
2020,05,27,03,23,9.10
2020,05,27,03,24,9.10
2020,05,27,03,25,9.10
2020,05,27,03,26,9.10
2020,05,27,03,27,9.10
2020,05,27,03,28,9.10
2020,05,27,03,29,9.10
2020,05,27,03,30,9.10
2020,05,27,03,31,9.10
2020,05,27,03,32,9.10
2020,05,27,03,33,9.10
2020,05,27,03,34,9.10
2020,05,27,03,35,9.10
2020,05,27,03,36,9.10
2020,05,27,03,37,9.10
2020,05,27,03,38,9.10
2020,05,27,03,39,9.10
2020,05,27,03,40,9.00
2020,05,27,03,41,9.00
2020,05,27,03,42,9.00
2020,05,27,03,43,9.00
2020,05,27,03,44,9.00
2020,05,27,03,45,8.90
2020,05,27,03,46,8.90
2020,05,27,03,47,8.90
2020,05,27,03,48,8.90
2020,05,27,03,49,8.90
2020,05,27,03,50,8.80
2020,05,27,03,51,8.80
2020,05,27,03,52,8.80
2020,05,27,03,53,8.80
2020,05,27,03,54,8.80
2020,05,27,03,55,8.80
2020,05,27,03,56,8.80
2020,05,27,03,57,8.80
2020,05,27,03,58,8.80
2020,05,27,03,59,8.80
2020,05,27,04,00,8.80
2020,05,27,04,01,8.70
2020,05,27,04,02,8.70
2020,05,27,04,03,8.70
2020,05,27,04,04,8.70
2020,05,27,04,05,8.70
2020,05,27,04,06,8.70
2020,05,27,04,07,8.70
2020,05,27,04,08,8.70
2020,05,27,04,09,8.60
2020,05,27,04,10,8.60
2020,05,27,04,11,8.60
2020,05,27,04,12,8.60
2020,05,27,04,13,8.60
2020,05,27,04,14,8.60
2020,05,27,04,15,8.60
2020,05,27,04,16,8.60
2020,05,27,04,17,8.60
2020,05,27,04,18,8.60
2020,05,27,04,19,8.50
2020,05,27,04,20,8.50
2020,05,27,04,21,8.50
2020,05,27,04,22,8.50
2020,05,27,04,23,8.50
2020,05,27,04,24,8.50
2020,05,27,04,25,8.50
2020,05,27,04,26,8.40
2020,05,27,04,27,8.40
2020,05,27,04,28,8.40
2020,05,27,04,29,8.40
2020,05,27,04,30,8.40
2020,05,27,04,31,8.40
2020,05,27,04,32,8.40
2020,05,27,04,33,8.40
2020,05,27,04,34,8.40
2020,05,27,04,35,8.30
2020,05,27,04,36,8.30
2020,05,27,04,37,8.30
2020,05,27,04,38,8.30
2020,05,27,04,39,8.30
2020,05,27,04,40,8.30
2020,05,27,04,41,8.30
2020,05,27,04,42,8.30
2020,05,27,04,43,8.20
2020,05,27,04,44,8.20
2020,05,27,04,45,8.20
2020,05,27,04,46,8.20
2020,05,27,04,47,8.20
2020,05,27,04,48,8.20
2020,05,27,04,49,8.20
2020,05,27,04,50,8.20
2020,05,27,04,51,8.20
2020,05,27,04,52,8.20
2020,05,27,04,53,8.20
2020,05,27,04,54,8.20
2020,05,27,04,55,8.20
2020,05,27,04,56,8.20
2020,05,27,04,57,8.20
2020,05,27,04,58,8.20
2020,05,27,04,59,8.20
2020,05,27,05,00,8.20
2020,05,27,05,01,8.20
2020,05,27,05,02,8.20
2020,05,27,05,03,8.20
2020,05,27,05,04,8.20
2020,05,27,05,05,8.20
2020,05,27,05,06,8.20
2020,05,27,05,07,8.20
2020,05,27,05,08,8.20
2020,05,27,05,09,8.20
2020,05,27,05,10,8.20
2020,05,27,05,11,8.20
2020,05,27,05,12,8.20
2020,05,27,05,13,8.20
2020,05,27,05,14,8.20
2020,05,27,05,15,8.20
2020,05,27,05,16,8.20
2020,05,27,05,17,8.20
2020,05,27,05,18,8.20
2020,05,27,05,19,8.20
2020,05,27,05,20,8.20
2020,05,27,05,21,8.20
2020,05,27,05,22,8.20
2020,05,27,05,23,8.20
2020,05,27,05,24,8.20
2020,05,27,05,25,8.20
2020,05,27,05,26,8.20
2020,05,27,05,27,8.20
2020,05,27,05,28,8.20
2020,05,27,05,29,8.30
2020,05,27,05,30,8.30
2020,05,27,05,31,8.30
2020,05,27,05,32,8.30
2020,05,27,05,33,8.30
2020,05,27,05,34,8.30
2020,05,27,05,35,8.30
2020,05,27,05,36,8.30
2020,05,27,05,37,8.30
2020,05,27,05,38,8.30
2020,05,27,05,39,8.30
2020,05,27,05,40,8.30
2020,05,27,05,41,8.30
2020,05,27,05,42,8.40
2020,05,27,05,43,8.40
2020,05,27,05,44,8.40
2020,05,27,05,45,8.40
2020,05,27,05,46,8.50
2020,05,27,05,47,8.50
2020,05,27,05,48,8.50
2020,05,27,05,49,8.60
2020,05,27,05,50,8.60
2020,05,27,05,51,8.60
2020,05,27,05,52,8.60
2020,05,27,05,53,8.70
2020,05,27,05,54,8.70
2020,05,27,05,55,8.70
2020,05,27,05,56,8.80
2020,05,27,05,57,8.80
2020,05,27,05,58,8.80
2020,05,27,05,59,8.80
2020,05,27,06,00,8.80
2020,05,27,06,01,8.80
2020,05,27,06,02,8.90
2020,05,27,06,03,8.90
2020,05,27,06,04,8.90
2020,05,27,06,05,8.90
2020,05,27,06,06,9.00
2020,05,27,06,07,9.00
2020,05,27,06,08,9.10
2020,05,27,06,09,9.10
2020,05,27,06,10,9.10
2020,05,27,06,11,9.10
2020,05,27,06,12,9.20
2020,05,27,06,13,9.20
2020,05,27,06,14,9.20
2020,05,27,06,15,9.20
2020,05,27,06,16,9.20
2020,05,27,06,17,9.20
2020,05,27,06,18,9.20
2020,05,27,06,19,9.20
2020,05,27,06,20,9.30
2020,05,27,06,21,9.30
2020,05,27,06,22,9.30
2020,05,27,06,23,9.30
2020,05,27,06,24,9.30
2020,05,27,06,25,9.30
2020,05,27,06,26,9.30
2020,05,27,06,27,9.30
2020,05,27,06,28,9.30
2020,05,27,06,29,9.30
2020,05,27,06,30,9.30
2020,05,27,06,31,9.30
2020,05,27,06,32,9.40
2020,05,27,06,33,9.40
2020,05,27,06,34,9.50
2020,05,27,06,35,9.50
2020,05,27,06,36,9.60
2020,05,27,06,37,9.60
2020,05,27,06,38,9.70
2020,05,27,06,39,9.80
2020,05,27,06,40,9.80
2020,05,27,06,41,9.90
2020,05,27,06,42,10.00
2020,05,27,06,43,10.00
2020,05,27,06,44,10.10
2020,05,27,06,45,10.20
2020,05,27,06,46,10.20
2020,05,27,06,47,10.30
2020,05,27,06,48,10.30
2020,05,27,06,49,10.40
2020,05,27,06,50,10.40
2020,05,27,06,51,10.50
2020,05,27,06,52,10.50
2020,05,27,06,53,10.60
2020,05,27,06,54,10.60
2020,05,27,06,55,10.70
2020,05,27,06,56,10.70
2020,05,27,06,57,10.80
2020,05,27,06,58,10.90
2020,05,27,06,59,10.90
2020,05,27,07,00,11.00
2020,05,27,07,01,11.10
2020,05,27,07,02,11.20
2020,05,27,07,03,11.30
2020,05,27,07,04,11.40
2020,05,27,07,05,11.50
2020,05,27,07,06,11.60
2020,05,27,07,07,11.70
2020,05,27,07,08,11.80
2020,05,27,07,09,11.90
2020,05,27,07,10,12.10
2020,05,27,07,11,12.10
2020,05,27,07,12,12.20
2020,05,27,07,13,12.30
2020,05,27,07,14,12.40
2020,05,27,07,15,12.40
2020,05,27,07,16,12.50
2020,05,27,07,17,12.50
2020,05,27,07,18,12.60
2020,05,27,07,19,12.60
2020,05,27,07,20,12.70
2020,05,27,07,21,12.80
2020,05,27,07,22,12.80
2020,05,27,07,23,12.80
2020,05,27,07,24,12.90
2020,05,27,07,25,13.00
2020,05,27,07,26,13.10
2020,05,27,07,27,13.10
2020,05,27,07,28,13.10
2020,05,27,07,29,13.20
2020,05,27,07,30,13.20
2020,05,27,07,31,13.30
2020,05,27,07,32,13.30
2020,05,27,07,33,13.40
2020,05,27,07,34,13.40
2020,05,27,07,35,13.50
2020,05,27,07,36,13.50
2020,05,27,07,37,13.60
2020,05,27,07,38,13.60
2020,05,27,07,39,13.70
2020,05,27,07,40,13.70
2020,05,27,07,41,13.70
2020,05,27,07,42,13.80
2020,05,27,07,43,13.80
2020,05,27,07,44,13.90
2020,05,27,07,45,13.90
2020,05,27,07,46,14.00
2020,05,27,07,47,14.00
2020,05,27,07,48,14.10
2020,05,27,07,49,14.10
2020,05,27,07,50,14.20
2020,05,27,07,51,14.20
2020,05,27,07,52,14.20
2020,05,27,07,53,14.20
2020,05,27,07,54,14.20
2020,05,27,07,55,14.20
2020,05,27,07,56,14.10
2020,05,27,07,57,14.10
2020,05,27,07,58,14.10
2020,05,27,07,59,14.20
2020,05,27,08,00,14.20
2020,05,27,08,01,14.20
2020,05,27,08,02,14.20
2020,05,27,08,03,14.20
2020,05,27,08,04,14.20
2020,05,27,08,05,14.20
2020,05,27,08,06,14.20
2020,05,27,08,07,14.20
2020,05,27,08,08,14.20
2020,05,27,08,09,14.20
2020,05,27,08,10,14.30
2020,05,27,08,11,14.30
2020,05,27,08,12,14.30
2020,05,27,08,13,14.30
2020,05,27,08,14,14.30
2020,05,27,08,15,14.30
2020,05,27,08,16,14.30
2020,05,27,08,17,14.40
2020,05,27,08,18,14.50
2020,05,27,08,19,14.50
2020,05,27,08,20,14.60
2020,05,27,08,21,14.70
2020,05,27,08,22,14.70
2020,05,27,08,23,14.80
2020,05,27,08,24,14.80
2020,05,27,08,25,14.90
2020,05,27,08,26,15.00
2020,05,27,08,27,15.00
2020,05,27,08,28,15.10
2020,05,27,08,29,15.00
2020,05,27,08,30,15.00
2020,05,27,08,31,15.00
2020,05,27,08,32,14.90
2020,05,27,08,33,14.90
2020,05,27,08,34,14.90
2020,05,27,08,35,14.90
2020,05,27,08,36,14.90
2020,05,27,08,37,14.90
2020,05,27,08,38,14.90
2020,05,27,08,39,14.90
2020,05,27,08,40,14.90
2020,05,27,08,41,14.90
2020,05,27,08,42,14.80
2020,05,27,08,43,14.80
2020,05,27,08,44,14.80
2020,05,27,08,45,14.80
2020,05,27,08,46,14.70
2020,05,27,08,47,14.70
2020,05,27,08,48,14.70
2020,05,27,08,49,14.70
2020,05,27,08,50,14.70
2020,05,27,08,51,14.70
2020,05,27,08,52,14.80
2020,05,27,08,53,14.80
2020,05,27,08,54,14.80
2020,05,27,08,55,14.80
2020,05,27,08,56,14.80
2020,05,27,08,57,14.80
2020,05,27,08,58,14.80
2020,05,27,08,59,14.70
2020,05,27,09,00,14.70
2020,05,27,09,01,14.70
2020,05,27,09,02,14.70
2020,05,27,09,03,14.70
2020,05,27,09,04,14.70
2020,05,27,09,05,14.70
2020,05,27,09,06,14.80
2020,05,27,09,07,14.80
2020,05,27,09,08,14.80
2020,05,27,09,09,14.80
2020,05,27,09,10,14.80
2020,05,27,09,11,14.80
2020,05,27,09,12,14.80
2020,05,27,09,13,14.80
2020,05,27,09,14,14.80
2020,05,27,09,15,14.80
2020,05,27,09,16,14.80
2020,05,27,09,17,14.80
2020,05,27,09,18,14.80
2020,05,27,09,19,14.90
2020,05,27,09,20,14.90
2020,05,27,09,21,14.90
2020,05,27,09,22,14.90
2020,05,27,09,23,14.90
2020,05,27,09,24,14.90
2020,05,27,09,25,15.00
2020,05,27,09,26,15.00
2020,05,27,09,27,14.90
2020,05,27,09,28,15.00
2020,05,27,09,29,15.00
2020,05,27,09,30,15.00
2020,05,27,09,31,14.90
2020,05,27,09,32,14.90
2020,05,27,09,33,14.90
2020,05,27,09,34,14.80
2020,05,27,09,35,14.90
2020,05,27,09,36,14.90
2020,05,27,09,37,14.90
2020,05,27,09,38,15.00
2020,05,27,09,39,15.00
2020,05,27,09,40,15.00
2020,05,27,09,41,15.10
2020,05,27,09,42,15.10
2020,05,27,09,43,15.10
2020,05,27,09,44,15.10
2020,05,27,09,45,15.20
2020,05,27,09,46,15.20
2020,05,27,09,47,15.20
2020,05,27,09,48,15.10
2020,05,27,09,49,15.10
2020,05,27,09,50,15.10
2020,05,27,09,51,15.10
2020,05,27,09,52,15.10
2020,05,27,09,53,15.20
2020,05,27,09,54,15.20
2020,05,27,09,55,15.20
2020,05,27,09,56,15.20
2020,05,27,09,57,15.20
2020,05,27,09,58,15.20
2020,05,27,09,59,15.30
2020,05,27,10,00,15.30
2020,05,27,10,01,15.30
2020,05,27,10,02,15.30
2020,05,27,10,03,15.30
2020,05,27,10,04,15.20
2020,05,27,10,05,15.20
2020,05,27,10,06,15.20
2020,05,27,10,07,15.20
2020,05,27,10,08,15.30
2020,05,27,10,09,15.30
2020,05,27,10,10,15.30
2020,05,27,10,11,15.30
2020,05,27,10,12,15.30
2020,05,27,10,13,15.40
2020,05,27,10,14,15.40
2020,05,27,10,15,15.50
2020,05,27,10,16,15.50
2020,05,27,10,17,15.60
2020,05,27,10,18,15.60
2020,05,27,10,19,15.70
2020,05,27,10,20,15.70
2020,05,27,10,21,15.70
2020,05,27,10,22,15.80
2020,05,27,10,23,15.80
2020,05,27,10,24,15.90
2020,05,27,10,25,15.90
2020,05,27,10,26,15.90
2020,05,27,10,27,16.00
2020,05,27,10,28,16.10
2020,05,27,10,29,16.10
2020,05,27,10,30,16.20
2020,05,27,10,31,16.20
2020,05,27,10,32,16.30
2020,05,27,10,33,16.30
2020,05,27,10,34,16.40
2020,05,27,10,35,16.50
2020,05,27,10,36,16.50
2020,05,27,10,37,16.50
2020,05,27,10,38,16.60
2020,05,27,10,39,16.70
2020,05,27,10,40,16.70
2020,05,27,10,41,16.80
2020,05,27,10,42,16.80
2020,05,27,10,43,16.80
2020,05,27,10,44,16.70
2020,05,27,10,45,16.70
2020,05,27,10,46,16.70
2020,05,27,10,47,16.70
2020,05,27,10,48,16.70
2020,05,27,10,49,16.70
2020,05,27,10,50,16.70
2020,05,27,10,51,16.60
2020,05,27,10,52,16.60
2020,05,27,10,53,16.60
2020,05,27,10,54,16.60
2020,05,27,10,55,16.60
2020,05,27,10,56,16.60
2020,05,27,10,57,16.70
2020,05,27,10,58,16.70
2020,05,27,10,59,16.80
2020,05,27,11,00,16.80
2020,05,27,11,01,16.80
2020,05,27,11,02,16.80
2020,05,27,11,03,16.90
2020,05,27,11,04,16.90
2020,05,27,11,05,17.00
2020,05,27,11,06,17.10
2020,05,27,11,07,17.10
2020,05,27,11,08,17.20
2020,05,27,11,09,17.10
2020,05,27,11,10,17.10
2020,05,27,11,11,17.00
2020,05,27,11,12,17.00
2020,05,27,11,13,16.90
2020,05,27,11,14,16.90
2020,05,27,11,15,16.80
2020,05,27,11,16,16.70
2020,05,27,11,17,16.70
2020,05,27,11,18,16.70
2020,05,27,11,19,16.70
2020,05,27,11,20,16.80
2020,05,27,11,21,16.80
2020,05,27,11,22,16.90
2020,05,27,11,23,17.00
2020,05,27,11,24,17.10
2020,05,27,11,25,17.20
2020,05,27,11,26,17.20
2020,05,27,11,27,17.30
2020,05,27,11,28,17.40
2020,05,27,11,29,17.40
2020,05,27,11,30,17.40
2020,05,27,11,31,17.40
2020,05,27,11,32,17.30
2020,05,27,11,33,17.20
2020,05,27,11,34,17.10
2020,05,27,11,35,17.10
2020,05,27,11,36,17.00
2020,05,27,11,37,16.90
2020,05,27,11,38,16.90
2020,05,27,11,39,16.80
2020,05,27,11,40,16.80
2020,05,27,11,41,16.80
2020,05,27,11,42,16.90
2020,05,27,11,43,17.00
2020,05,27,11,44,17.00
2020,05,27,11,45,17.00
2020,05,27,11,46,17.00
2020,05,27,11,47,17.10
2020,05,27,11,48,17.20
2020,05,27,11,49,17.20
2020,05,27,11,50,17.30
2020,05,27,11,51,17.30
2020,05,27,11,52,17.20
2020,05,27,11,53,17.20
2020,05,27,11,54,17.20
2020,05,27,11,55,17.20
2020,05,27,11,56,17.30
2020,05,27,11,57,17.40
2020,05,27,11,58,17.50
2020,05,27,11,59,17.60
2020,05,27,12,00,17.60
2020,05,27,12,01,17.60
2020,05,27,12,02,17.50
2020,05,27,12,03,17.50
2020,05,27,12,04,17.40
2020,05,27,12,05,17.40
2020,05,27,12,06,17.40
2020,05,27,12,07,17.40
2020,05,27,12,08,17.40
2020,05,27,12,09,17.50
2020,05,27,12,10,17.50
2020,05,27,12,11,17.60
2020,05,27,12,12,17.60
2020,05,27,12,13,17.70
2020,05,27,12,14,17.70
2020,05,27,12,15,17.80
2020,05,27,12,16,17.80
2020,05,27,12,17,17.90
2020,05,27,12,18,18.00
2020,05,27,12,19,18.00
2020,05,27,12,20,18.10
2020,05,27,12,21,18.10
2020,05,27,12,22,18.10
2020,05,27,12,23,18.10
2020,05,27,12,24,18.20
2020,05,27,12,25,18.30
2020,05,27,12,26,18.40
2020,05,27,12,27,18.40
2020,05,27,12,28,18.40
2020,05,27,12,29,18.40
2020,05,27,12,30,18.30
2020,05,27,12,31,18.20
2020,05,27,12,32,18.20
2020,05,27,12,33,18.20
2020,05,27,12,34,18.20
2020,05,27,12,35,18.10
2020,05,27,12,36,18.10
2020,05,27,12,37,18.10
2020,05,27,12,38,18.20
2020,05,27,12,39,18.30
2020,05,27,12,40,18.40
2020,05,27,12,41,18.50
2020,05,27,12,42,18.60
2020,05,27,12,43,18.70
2020,05,27,12,44,18.80
2020,05,27,12,45,18.90
2020,05,27,12,46,19.00
2020,05,27,12,47,19.00
2020,05,27,12,48,19.10
2020,05,27,12,49,19.10
2020,05,27,12,50,19.20
2020,05,27,12,51,19.20
2020,05,27,12,52,19.20
2020,05,27,12,53,19.10
2020,05,27,12,54,19.10
2020,05,27,12,55,19.00
2020,05,27,12,56,18.90
2020,05,27,12,57,18.90
2020,05,27,12,58,18.90
2020,05,27,12,59,18.90
2020,05,27,13,00,18.90
2020,05,27,13,01,18.80
2020,05,27,13,02,18.80
2020,05,27,13,03,18.80
2020,05,27,13,04,18.80
2020,05,27,13,05,18.80
2020,05,27,13,06,18.80
2020,05,27,13,07,18.70
2020,05,27,13,08,18.60
2020,05,27,13,09,18.60
2020,05,27,13,10,18.60
2020,05,27,13,11,18.50
2020,05,27,13,12,18.50
2020,05,27,13,13,18.60
2020,05,27,13,14,18.60
2020,05,27,13,15,18.60
2020,05,27,13,16,18.70
2020,05,27,13,17,18.80
2020,05,27,13,18,18.80
2020,05,27,13,19,18.80
2020,05,27,13,20,18.80
2020,05,27,13,21,18.90
2020,05,27,13,22,19.00
2020,05,27,13,23,19.10
2020,05,27,13,24,19.10
2020,05,27,13,25,19.20
2020,05,27,13,26,19.30
2020,05,27,13,27,19.40
2020,05,27,13,28,19.40
2020,05,27,13,29,19.40
2020,05,27,13,30,19.40
2020,05,27,13,31,19.40
2020,05,27,13,32,19.40
2020,05,27,13,33,19.50
2020,05,27,13,34,19.50
2020,05,27,13,35,19.50
2020,05,27,13,36,19.50
2020,05,27,13,37,19.40
2020,05,27,13,38,19.50
2020,05,27,13,39,19.50
2020,05,27,13,40,19.60
2020,05,27,13,41,19.60
2020,05,27,13,42,19.60
2020,05,27,13,43,19.70
2020,05,27,13,44,19.70
2020,05,27,13,45,19.80
2020,05,27,13,46,19.90
2020,05,27,13,47,19.90
2020,05,27,13,48,20.00
2020,05,27,13,49,20.00
2020,05,27,13,50,20.10
2020,05,27,13,51,20.10
2020,05,27,13,52,20.10
2020,05,27,13,53,20.20
2020,05,27,13,54,20.10
2020,05,27,13,55,20.00
2020,05,27,13,56,19.90
2020,05,27,13,57,19.90
2020,05,27,13,58,19.80
2020,05,27,13,59,19.80
2020,05,27,14,00,19.90
2020,05,27,14,01,19.90
2020,05,27,14,02,19.90
2020,05,27,14,03,20.00
2020,05,27,14,04,20.10
2020,05,27,14,05,20.10
2020,05,27,14,06,20.10
2020,05,27,14,07,20.10
2020,05,27,14,08,20.00
2020,05,27,14,09,19.90
2020,05,27,14,10,19.90
2020,05,27,14,11,20.00
2020,05,27,14,12,20.10
2020,05,27,14,13,20.10
2020,05,27,14,14,20.20
2020,05,27,14,15,20.30
2020,05,27,14,16,20.30
2020,05,27,14,17,20.20
2020,05,27,14,18,20.20
2020,05,27,14,19,20.10
2020,05,27,14,20,20.10
2020,05,27,14,21,20.10
2020,05,27,14,22,20.20
2020,05,27,14,23,20.20
2020,05,27,14,24,20.20
2020,05,27,14,25,20.20
2020,05,27,14,26,20.20
2020,05,27,14,27,20.30
2020,05,27,14,28,20.30
2020,05,27,14,29,20.40
2020,05,27,14,30,20.40
2020,05,27,14,31,20.50
2020,05,27,14,32,20.60
2020,05,27,14,33,20.70
2020,05,27,14,34,20.70
2020,05,27,14,35,20.70
2020,05,27,14,36,20.60
2020,05,27,14,37,20.60
2020,05,27,14,38,20.60
2020,05,27,14,39,20.60
2020,05,27,14,40,20.70
2020,05,27,14,41,20.80
2020,05,27,14,42,20.90
2020,05,27,14,43,21.10
2020,05,27,14,44,21.20
2020,05,27,14,45,21.20
2020,05,27,14,46,21.30
2020,05,27,14,47,21.40
2020,05,27,14,48,21.50
2020,05,27,14,49,21.50
2020,05,27,14,50,21.60
2020,05,27,14,51,21.60
2020,05,27,14,52,21.60
2020,05,27,14,53,21.60
2020,05,27,14,54,21.50
2020,05,27,14,55,21.40
2020,05,27,14,56,21.40
2020,05,27,14,57,21.40
2020,05,27,14,58,21.30
2020,05,27,14,59,21.30
2020,05,27,15,00,21.30
2020,05,27,15,01,21.40
2020,05,27,15,02,21.40
2020,05,27,15,03,21.50
2020,05,27,15,04,21.60
2020,05,27,15,05,21.70
2020,05,27,15,06,21.70
2020,05,27,15,07,21.70
2020,05,27,15,08,21.70
2020,05,27,15,09,21.60
2020,05,27,15,10,21.60
2020,05,27,15,11,21.60
2020,05,27,15,12,21.60
2020,05,27,15,13,21.60
2020,05,27,15,14,21.70
2020,05,27,15,15,21.80
2020,05,27,15,16,21.90
2020,05,27,15,17,22.00
2020,05,27,15,18,22.10
2020,05,27,15,19,22.10
2020,05,27,15,20,22.00
2020,05,27,15,21,21.90
2020,05,27,15,22,21.80
2020,05,27,15,23,21.70
2020,05,27,15,24,21.60
2020,05,27,15,25,21.50
2020,05,27,15,26,21.50
2020,05,27,15,27,21.60
2020,05,27,15,28,21.70
2020,05,27,15,29,21.80
2020,05,27,15,30,21.80
2020,05,27,15,31,21.80
2020,05,27,15,32,21.80
2020,05,27,15,33,21.70
2020,05,27,15,34,21.60
2020,05,27,15,35,21.50
2020,05,27,15,36,21.40
2020,05,27,15,37,21.50
2020,05,27,15,38,21.50
2020,05,27,15,39,21.70
2020,05,27,15,40,21.80
2020,05,27,15,41,21.90
2020,05,27,15,42,22.00
2020,05,27,15,43,22.10
2020,05,27,15,44,22.20
2020,05,27,15,45,22.30
2020,05,27,15,46,22.30
2020,05,27,15,47,22.30
2020,05,27,15,48,22.20
2020,05,27,15,49,22.20
2020,05,27,15,50,22.10
2020,05,27,15,51,22.10
2020,05,27,15,52,22.10
2020,05,27,15,53,22.20
2020,05,27,15,54,22.30
2020,05,27,15,55,22.40
2020,05,27,15,56,22.40
2020,05,27,15,57,22.30
2020,05,27,15,58,22.20
2020,05,27,15,59,22.10
2020,05,27,16,00,22.00
2020,05,27,16,01,22.00
2020,05,27,16,02,22.00
2020,05,27,16,03,22.10
2020,05,27,16,04,22.10
2020,05,27,16,05,22.20
2020,05,27,16,06,22.20
2020,05,27,16,07,22.20
2020,05,27,16,08,22.30
2020,05,27,16,09,22.30
2020,05,27,16,10,22.30
2020,05,27,16,11,22.30
2020,05,27,16,12,22.30
2020,05,27,16,13,22.40
2020,05,27,16,14,22.40
2020,05,27,16,15,22.40
2020,05,27,16,16,22.40
2020,05,27,16,17,22.50
2020,05,27,16,18,22.60
2020,05,27,16,19,22.60
2020,05,27,16,20,22.50
2020,05,27,16,21,22.50
2020,05,27,16,22,22.40
2020,05,27,16,23,22.40
2020,05,27,16,24,22.30
2020,05,27,16,25,22.30
2020,05,27,16,26,22.30
2020,05,27,16,27,22.20
2020,05,27,16,28,22.20
2020,05,27,16,29,22.30
2020,05,27,16,30,22.30
2020,05,27,16,31,22.30
2020,05,27,16,32,22.20
2020,05,27,16,33,22.20
2020,05,27,16,34,22.10
2020,05,27,16,35,22.00
2020,05,27,16,36,21.90
2020,05,27,16,37,21.90
2020,05,27,16,38,21.80
2020,05,27,16,39,21.80
2020,05,27,16,40,21.90
2020,05,27,16,41,22.00
2020,05,27,16,42,22.10
2020,05,27,16,43,22.20
2020,05,27,16,44,22.30
2020,05,27,16,45,22.30
2020,05,27,16,46,22.30
2020,05,27,16,47,22.30
2020,05,27,16,48,22.30
2020,05,27,16,49,22.30
2020,05,27,16,50,22.30
2020,05,27,16,51,22.30
2020,05,27,16,52,22.40
2020,05,27,16,53,22.60
2020,05,27,16,54,22.70
2020,05,27,16,55,22.90
2020,05,27,16,56,22.90
2020,05,27,16,57,23.00
2020,05,27,16,58,23.00
2020,05,27,16,59,22.90
2020,05,27,17,00,22.80
2020,05,27,17,01,22.70
2020,05,27,17,02,22.70
2020,05,27,17,03,22.70
2020,05,27,17,04,22.70
2020,05,27,17,05,22.70
2020,05,27,17,06,22.80
2020,05,27,17,07,22.80
2020,05,27,17,08,22.90
2020,05,27,17,09,23.00
2020,05,27,17,10,23.00
2020,05,27,17,11,23.10
2020,05,27,17,12,23.10
2020,05,27,17,13,23.10
2020,05,27,17,14,23.10
2020,05,27,17,15,23.10
2020,05,27,17,16,23.00
2020,05,27,17,17,23.00
2020,05,27,17,18,23.00
2020,05,27,17,19,23.00
2020,05,27,17,20,22.90
2020,05,27,17,21,22.80
2020,05,27,17,22,22.80
2020,05,27,17,23,22.80
2020,05,27,17,24,22.70
2020,05,27,17,25,22.60
2020,05,27,17,26,22.50
2020,05,27,17,27,22.50
2020,05,27,17,28,22.40
2020,05,27,17,29,22.40
2020,05,27,17,30,22.40